Weather Roundup
Issued by NWS Chicago, IL

Home | Current Version | Previous Version | Text Only | Print | Product List | Glossary On
Versions: 1 2 3 4 5 6 7 8 9 10 11 12 13 14 15 16 17 18 19 20 21 22 23 24 25 26 27 28 29 30 31 32 33 34 35 36 37 38 39 40 41 42 43 44 45 46 47 48 49 50
385
NZUS59 KLOT 302203
HRRLOT

CHICAGO AREA WEATHER ROUNDUP
NATIONAL WEATHER SERVICE CHICAGO/ROMEOVILLE IL
500 PM CDT THU MAR 30 2017

NOTE: "FAIR" INDICATES FEW OR NO CLOUDS BELOW 12,000 FEET WITH NO
SIGNIFICANT WEATHER AND/OR OBSTRUCTIONS TO VISIBILITY.

* THESE STATIONS ARE NOT UNDER NWS QUALITY CONTROL. THEY ALSO MAY NOT
  REPORT WEATHER SUCH AS PRECIPITATION OR FOG.

ILZ005-006-012>014-019>023-302300-
NORTHEAST ILLINOIS

CITY           SKY/WX    TMP DP  RH WIND       PRES   REMARKS
OHARE          CLOUDY    44  42  93 NE12      29.60F
MIDWAY         CLOUDY    45  43  93 NE16G23   29.60F
AURORA         CLOUDY    47  44  90 NE9       29.60R
LANSING*       CLOUDY    47  47 100 N6        29.60R FOG
JOLIET*        CLOUDY    49  47  92 NE9       29.59S
WAUKEGAN       CLOUDY    39  39 100 NE15      29.64R FOG
DUPAGE AIRPORT CLOUDY    44  44 100 NE13      29.60F
WHEELING       CLOUDY    42  42 100 NE12      29.63F
KANKAKEE*      CLOUDY    53  51  94 E9        29.56R
MORRIS*        CLOUDY    49  46  90 NE6       29.57F
NORTHERLY ISL    N/A     41  40  96 N6          N/A
$$

WIZ051-052-058>065-066-070>072-302300-
SOUTHEAST WISCONSIN

CITY           SKY/WX    TMP DP  RH WIND       PRES   REMARKS
MILWAUKEE      CLOUDY    39  37  92 NE15G33   29.69F
KENOSHA*       CLOUDY    39  37  92 NE22G31   29.66R
RACINE*        CLOUDY    39  37  92 NE18G25   29.70R
WAUKESHA       LGT RAIN  36  36 100 NE29G39   29.61F
WEST BEND      DRIZZLE   37  37 100 NE18G29   29.70F
$$

INZ001>003-010>013-019-020-302300-
NORTHWEST INDIANA

CITY           SKY/WX    TMP DP  RH WIND       PRES   REMARKS
GARY*          CLOUDY    45  45 100 N10       29.60S FOG
MICHIGAN CITY* NOT AVBL
RENSSELAER*    NOT AVBL
VALPARAISO     CLOUDY    50  47  89 E16       29.59S
$$

LMZ740>746-302300-
SOUTHERN LAKE MICHIGAN

STATION/POSITION TIME  SKY/WX   TEMP WIND        PRES    VSBY
                                AIR  DIR/SP/G
                 (UTC)          (F)  (DEG/KT/KT) (MB)    (MI)
HARRISON CRIB    2140            41   50/ 15/ 16   N/A
BURNHAM HARBOR   2200            41   20/  5/ 11   N/A
CALUMET HARBOR   2130            42   20/  8/ 12 1002.2R
BURNS HARBOR     2140            49   90/  8/ 14 1002.7R
MICHIGAN CITY    2140            47  100/ 15/ 19   N/A
$$

ABBREVIATIONS USED IN REMARKS
   TC - TEMPERATURE IN CELSIUS
  WCI - WIND CHILL INDEX
   HX - HEAT INDEX
  VSB - VISIBILITY
$$




USA.gov is the U.S. government's official web portal to all federal, state and local government web resources and services.